Theta_e
315 314 315 315 314 315 315 314 314 314 316 318 317 317 318 318 319 320 319 319 318 319 320 320 320 320 319 319 320 322 323 324 324 324 325 325 327 327 328 328 329 330 331 330 331 331 332 332 332 332 332 332 332 331 331 331 332 331 330 330 330 329 328 327 326 325 326 325 325 325 325 325 324 324
316 316 316 315 315 315 315 314 314 314 316 317 315 315 318 319 319 319 319 319 318 318 319 320 319 318 318 318 321 323 323 323 323 324 324 325 326 327 328 329 330 331 331 330 330 331 331 332 332 332 332 332 331 331 331 331 332 331 331 331 331 331 330 329 328 327 327 327 326 326 325 325 325 324
316 316 316 315 315 315 315 315 314 314 315 316 315 314 316 319 320 319 318 318 318 318 318 318 317 316 316 316 320 323 322 322 323 323 324 325 326 327 328 329 329 330 330 330 330 330 331 331 332 332 332 332 331 331 332 332 331 331 331 331 331 331 331 330 330 329 329 328 328 327 327 326 326 325
316 316 316 315 314 315 315 315 314 315 314 314 314 314 315 317 319 319 318 319 319 317 316 317 316 315 315 315 318 321 321 321 321 322 323 324 325 326 327 327 328 328 328 328 328 328 329 330 331 331 332 332 331 331 331 331 331 331 331 331 331 331 331 331 331 331 331 330 330 329 329 328 328 327
315 316 316 315 314 314 315 315 314 315 315 314 314 314 314 315 318 319 318 319 319 317 315 315 315 315 315 315 316 319 320 320 320 320 321 323 324 325 325 326 326 327 327 327 327 327 328 328 329 330 331 331 331 331 331 331 331 331 331 331 331 331 331 331 331 331 331 331 330 330 330 330 329 329
313 314 315 315 315 314 314 315 314 315 315 315 315 315 314 314 316 318 318 318 318 317 315 314 314 315 315 315 315 316 318 318 318 319 319 320 321 323 324 325 326 326 326 327 327 327 327 327 328 329 330 332 332 332 331 331 331 331 331 331 331 331 331 332 331 331 331 331 331 331 330 331 331 330
312 312 313 314 314 314 314 314 315 314 314 315 315 315 315 314 315 317 317 317 317 317 316 315 315 315 315 315 315 315 316 316 316 317 317 318 318 320 322 323 325 326 326 327 327 327 327 327 327 327 328 330 331 332 332 332 331 331 331 331 331 331 331 331 332 331 331 331 331 331 331 331 331 331
312 312 311 311 313 314 314 314 314 314 313 313 314 315 315 314 314 315 316 316 316 316 316 316 315 315 315 315 316 315 315 315 315 316 316 317 317 317 318 320 322 324 326 326 327 327 328 327 327 327 327 328 329 331 332 332 332 332 331 331 330 331 330 331 331 331 331 331 331 331 331 331 331 331
312 312 311 310 311 313 314 314 314 314 313 313 314 314 314 314 314 314 314 315 315 315 316 315 314 312 312 313 314 315 316 316 315 315 316 316 316 316 316 317 318 321 323 323 323 324 326 328 328 327 327 327 327 329 330 331 332 332 332 331 331 331 330 330 331 331 331 331 331 332 331 331 331 331
313 313 311 310 310 313 314 314 314 314 314 314 313 313 314 314 314 314 314 315 314 314 314 314 312 309 307 308 308 310 313 315 316 316 316 315 315 316 315 315 316 318 319 320 319 319 321 324 327 328 327 327 327 327 328 329 330 331 331 332 331 332 331 331 331 331 331 331 331 332 331 331 331 331
313 313 313 310 309 312 314 314 314 314 314 313 313 313 313 314 314 314 314 314 314 313 311 311 310 309 307 307 305 304 305 311 315 316 316 316 316 316 316 315 316 317 317 318 318 317 317 319 323 326 327 327 327 327 328 328 328 329 330 331 331 331 332 332 332 331 331 332 331 331 331 331 330 331
314 313 314 312 309 310 312 313 313 314 313 312 312 313 314 314 314 314 314 315 314 313 311 310 310 309 308 307 306 304 303 308 313 315 315 316 316 316 316 315 316 317 317 317 317 317 317 317 319 322 325 326 326 327 327 328 328 328 328 329 330 331 331 332 332 332 331 332 332 331 331 331 331 331
314 314 314 314 310 309 311 313 313 313 313 312 313 314 314 314 314 314 314 315 314 313 312 311 310 309 308 307 306 306 305 308 312 314 315 316 316 316 316 315 315 316 316 316 316 316 316 316 317 318 320 322 323 324 325 326 327 328 328 328 329 329 330 331 332 332 332 332 331 331 331 331 331 331
315 314 315 315 312 309 309 312 313 312 313 313 314 314 314 314 314 314 314 315 314 313 312 311 310 310 309 307 306 306 307 308 312 314 315 315 315 315 316 315 315 315 315 314 315 315 316 317 318 318 319 320 321 322 322 323 324 326 326 327 327 328 329 329 330 331 332 332 331 330 330 330 329 329
315 315 315 315 314 311 308 309 312 312 312 313 313 312 313 313 314 314 314 315 314 313 312 311 311 310 309 307 306 306 307 309 312 313 314 314 314 314 315 315 315 315 315 314 315 315 316 317 319 320 319 320 320 321 322 322 323 323 324 325 326 327 328 328 329 330 330 331 330 330 329 329 329 329
316 316 315 316 315 314 310 308 309 311 312 313 312 311 311 311 311 312 312 314 314 314 313 312 312 311 309 307 305 305 307 310 311 312 313 313 314 314 315 315 314 315 314 314 315 315 316 318 319 320 319 320 321 321 321 321 322 322 322 323 324 324 325 326 326 326 327 328 329 328 327 328 328 328
316 317 316 316 316 316 313 309 308 310 311 312 312 311 310 310 310 311 311 312 313 314 314 313 312 311 309 307 305 305 308 310 310 311 311 312 313 314 315 314 314 315 314 314 315 315 316 317 318 320 320 319 320 320 320 321 321 321 320 321 321 322 322 322 322 322 323 325 325 326 326 326 327 327
318 317 317 317 317 317 315 311 309 309 310 311 311 311 310 310 311 311 311 312 312 313 314 313 313 312 309 306 305 306 307 308 309 309 310 311 312 314 314 315 315 315 314 314 315 316 316 316 317 319 320 319 318 319 320 320 320 319 319 318 319 319 320 320 320 321 321 322 323 323 324 325 325 326
318 318 318 317 317 317 317 314 310 309 310 310 310 310 311 311 311 311 312 312 312 313 313 313 313 312 309 306 305 305 307 307 308 308 308 309 310 311 313 314 315 314 313 313 315 315 316 316 316 318 318 317 317 318 318 318 319 318 317 317 317 318 318 318 319 319 319 319 319 320 322 323 324 324
319 319 318 318 317 317 317 316 313 310 309 310 310 310 311 311 311 311 311 312 312 312 313 313 314 312 309 307 305 305 306 306 307 306 306 307 308 309 311 313 313 313 313 312 313 314 315 316 316 316 316 316 317 317 317 317 317 316 316 316 316 316 316 316 316 316 316 316 316 317 319 320 321 322
319 319 319 318 318 317 317 317 316 312 310 309 310 310 311 311 311 311 311 311 311 312 313 313 313 312 309 306 305 305 306 306 306 306 306 308 308 309 311 312 312 312 313 312 312 313 315 316 316 317 317 316 317 317 317 316 315 315 315 315 314 314 313 314 314 314 314 314 315 315 316 316 317 318
320 319 319 319 319 318 318 318 317 315 311 309 310 311 311 310 310 311 311 310 311 312 313 314 313 311 308 306 306 306 306 306 306 306 308 310 310 309 310 311 311 311 312 312 313 314 316 316 316 316 316 316 316 317 316 315 314 314 314 314 313 313 313 313 313 313 313 313 313 313 313 314 314 315
319 319 319 319 319 319 318 318 317 317 313 310 309 310 310 310 310 311 310 310 310 312 313 313 311 309 307 307 307 307 307 307 306 306 309 311 311 310 310 310 311 311 311 312 314 315 315 315 315 315 315 315 316 316 315 315 314 314 314 313 313 313 313 313 313 313 313 312 312 312 312 312 313 313
319 319 319 319 319 319 319 318 317 317 316 313 310 309 309 310 310 311 311 310 310 311 311 311 309 308 307 307 308 308 308 308 307 307 309 312 313 312 311 310 310 311 311 311 312 314 314 315 315 315 315 315 315 315 315 314 314 313 313 312 312 312 312 311 311 311 312 311 311 311 311 311 312 312
318 318 319 319 319 319 319 318 318 317 317 316 313 310 309 310 310 311 310 310 311 311 310 309 308 307 307 307 308 309 309 310 309 308 309 312 314 314 313 312 311 310 311 311 311 312 313 314 315 315 315 315 315 314 314 314 313 313 312 312 311 311 310 310 310 310 310 310 309 310 310 310 311 311
318 319 319 319 319 319 319 318 318 317 317 317 315 313 311 310 310 310 310 310 311 311 311 309 308 308 307 307 308 309 310 311 310 308 309 312 313 314 314 314 313 312 313 313 311 311 312 314 315 315 314 314 313 313 312 312 312 312 312 312 311 310 309 309 309 309 309 308 308 308 308 309 309 310
319 320 320 320 320 320 320 319 319 318 317 316 316 315 313 311 310 310 310 311 311 312 311 310 309 308 307 307 307 309 311 311 310 309 309 310 312 313 314 315 314 314 314 313 311 311 313 314 314 314 313 313 313 312 311 311 311 311 311 310 309 309 309 309 308 308 308 307 306 306 306 306 307 307
320 320 320 320 321 320 320 319 319 318 318 317 316 317 315 312 310 310 311 311 311 312 312 310 309 309 308 307 307 308 309 310 310 310 309 309 311 313 314 314 315 314 314 313 312 312 313 314 314 313 313 313 313 312 312 311 311 310 310 309 309 308 308 307 307 306 306 305 304 304 304 304 303 304
319 319 319 320 320 319 319 319 318 318 317 317 317 317 316 314 310 309 310 311 311 311 311 310 310 309 308 307 307 307 306 308 310 310 309 309 310 312 314 314 314 314 314 314 313 312 312 313 313 313 313 312 312 312 312 312 311 310 310 310 309 308 307 306 305 304 304 303 303 302 301 301 301 301
320 320 320 319 319 318 317 316 316 317 317 317 317 316 316 314 311 310 310 311 311 311 311 310 310 309 308 307 307 306 306 308 310 310 309 309 310 311 313 313 313 313 313 313 313 313 312 313 313 313 312 312 312 312 313 312 311 311 310 309 308 307 306 305 304 303 302 301 300 299 299 299 299 300
320 320 320 320 320 319 317 315 315 315 316 315 315 315 316 315 313 311 310 310 310 310 310 310 310 309 308 308 307 307 306 308 311 311 309 309 309 310 312 313 313 312 312 312 312 312 312 313 313 312 311 311 312 312 312 312 311 311 309 308 307 306 305 304 303 302 300 299 299 298 298 297 297 298
320 320 319 319 318 316 315 314 313 313 314 314 314 314 314 315 314 312 310 310 310 310 310 309 309 309 309 308 308 307 307 309 311 311 310 309 309 310 312 313 312 312 312 312 312 312 312 313 312 311 310 311 311 312 312 312 311 309 308 307 305 305 304 303 302 301 299 299 298 297 297 297 296 297
319 318 318 316 314 313 313 313 311 312 313 312 313 313 313 313 313 311 309 309 310 310 310 309 309 309 309 308 308 307 307 309 312 311 310 309 309 309 311 312 312 312 311 311 312 312 311 311 311 310 310 310 310 311 311 311 310 309 308 306 304 304 303 302 300 299 299 298 298 297 296 296 296 296
317 316 314 312 311 313 314 313 312 313 313 311 311 312 312 311 311 310 309 310 310 309 309 308 309 309 308 308 307 306 307 310 312 311 310 309 309 309 310 311 311 311 311 311 311 311 310 310 310 309 309 309 310 310 310 310 309 308 307 306 304 303 302 300 299 299 298 298 298 297 296 295 295 295
316 315 312 310 310 312 313 313 313 314 313 311 310 311 310 310 310 309 309 309 309 308 308 308 308 308 307 307 307 306 307 310 311 310 309 308 309 309 310 310 311 311 310 310 311 311 310 309 309 308 308 308 308 309 309 309 309 307 305 304 304 303 301 299 299 299 298 298 297 297 296 295 295 295
315 314 311 310 310 310 311 313 314 314 313 311 310 310 309 309 309 309 309 310 309 308 308 308 307 307 306 306 306 307 308 310 310 309 308 308 308 309 309 310 311 311 310 311 311 311 310 309 308 308 308 308 308 308 308 307 307 307 305 303 302 302 301 299 299 299 298 298 297 297 296 296 295 295
314 313 311 310 310 310 311 313 314 314 314 312 311 310 310 310 310 311 311 310 309 308 308 308 307 307 307 307 307 308 309 309 309 309 308 307 308 308 309 309 309 309 310 311 311 311 309 309 308 308 308 308 308 308 307 306 306 306 306 304 302 301 300 300 299 298 298 298 297 297 296 296 295 295
313 312 311 311 313 313 313 314 314 314 313 312 311 311 311 311 311 312 311 309 309 309 309 308 307 308 308 308 308 309 309 309 308 308 307 307 307 308 308 308 309 308 309 310 311 310 309 309 309 308 308 308 308 307 306 305 304 305 305 305 303 301 300 300 299 298 298 297 297 297 296 296 296 295
313 312 311 312 313 313 313 312 312 313 312 311 311 312 312 312 312 311 310 309 309 309 308 308 308 308 308 309 309 309 309 308 307 307 307 307 307 308 308 308 308 308 308 309 310 309 309 308 309 308 308 309 308 308 307 306 305 305 305 304 304 303 301 299 299 298 297 297 297 296 296 296 295 295
312 312 311 312 312 312 312 312 312 312 311 310 310 311 312 312 311 311 310 310 310 309 308 309 309 309 308 309 309 308 307 307 307 308 308 308 308 308 308 308 308 308 307 308 308 308 308 309 308 308 308 308 308 308 308 306 305 305 304 304 304 304 303 301 300 299 297 296 296 296 295 295 295 294
311 311 311 311 311 311 311 312 312 312 311 310 310 311 311 311 311 310 310 310 309 309 309 309 309 308 308 309 308 308 307 307 307 308 308 307 307 308 307 307 308 308 308 307 307 308 309 310 309 308 308 308 307 307 306 305 303 303 303 303 302 302 302 302 301 300 299 298 297 296 295 295 294 294
310 310 310 311 311 311 311 312 312 311 311 310 310 310 310 310 310 310 310 309 308 308 308 308 308 309 309 309 308 308 307 307 308 308 308 307 307 307 307 307 307 307 308 308 308 309 309 309 308 307 307 306 306 306 304 303 302 301 302 302 302 301 301 301 300 300 299 298 297 296 295 294 295 295
310 309 309 310 310 310 310 311 310 310 310 310 310 310 309 309 309 309 309 308 308 308 308 308 308 309 309 309 309 308 308 308 309 308 308 307 307 307 307 308 308 308 309 309 309 308 307 306 306 307 306 305 306 306 304 303 302 302 301 301 301 301 300 299 299 299 298 297 297 297 296 295 295 296
310 309 309 309 309 309 309 310 309 310 310 309 309 309 308 308 308 308 309 308 308 308 308 308 308 309 309 309 309 308 308 309 309 309 309 308 307 307 308 308 308 308 308 308 307 306 306 306 306 306 305 305 305 306 305 303 302 301 300 300 300 300 299 298 298 297 297 296 296 296 296 296 295 295
310 310 309 309 308 308 308 308 308 308 308 308 308 308 307 306 306 307 308 309 309 309 309 308 308 308 308 308 308 308 309 310 310 309 308 308 307 307 308 308 309 309 308 307 306 305 305 305 305 305 305 306 305 305 305 304 303 301 300 299 299 299 298 297 297 296 296 295 296 296 296 296 295 295
Wind_Speed
4 4 4 3 4 5 5 4 4 6 6 5 6 6 2 2 3 2 3 3 2 8 15 10 11 18 18 15 15 12 12 11 10 10 9 9 7 5 4 4 5 5 7 10 12 14 15 16 18 21 24 26 29 32 32 32 31 32 33 31 31 31 30 30 30 29 30 29 28 26 26 27 27 27
6 6 6 5 4 3 4 3 2 4 5 6 6 6 3 2 2 1 2 3 3 7 12 12 13 18 18 15 14 12 11 12 11 11 10 9 8 6 5 4 4 3 4 7 10 11 12 13 15 18 21 23 25 27 29 30 31 33 34 33 32 32 32 32 32 31 32 31 29 28 28 28 28 28
8 8 7 6 5 4 4 3 1 2 3 5 6 5 3 3 2 1 1 1 3 6 10 12 14 16 17 15 13 12 11 12 12 12 12 10 9 8 6 5 4 3 3 3 6 7 8 9 11 14 18 21 23 23 24 27 30 32 32 32 31 32 33 33 32 32 32 32 31 30 29 28 28 28
10 10 9 7 6 5 5 4 3 3 3 4 6 5 4 3 2 1 1 2 5 9 10 12 13 14 15 14 12 12 12 12 12 12 12 12 11 10 9 7 6 5 4 4 5 6 7 7 9 11 14 18 21 21 22 25 28 30 31 32 32 33 33 33 32 32 33 33 32 31 30 29 29 29
10 11 11 9 7 6 5 5 4 3 4 4 4 5 5 4 3 2 1 2 5 8 12 14 14 14 14 14 12 12 13 13 12 12 12 12 11 11 10 8 7 6 6 6 6 7 7 7 8 10 12 15 18 19 20 23 26 28 30 31 32 34 34 35 35 34 34 34 33 32 30 30 30 30
9 10 11 11 9 7 6 6 6 4 4 5 5 5 6 6 4 3 3 3 4 7 12 16 15 14 14 14 13 13 14 14 13 12 12 12 11 11 10 8 7 7 7 7 7 8 9 9 9 9 11 13 16 17 20 22 25 26 27 28 30 33 34 35 36 36 34 33 32 32 31 31 32 31
9 10 11 11 11 10 9 8 7 6 6 6 7 7 7 7 6 4 5 5 5 6 10 13 15 14 14 14 13 13 14 14 14 13 12 11 11 10 10 9 7 7 7 7 7 8 9 10 10 10 11 12 13 15 17 20 22 23 25 27 30 32 33 34 35 34 33 33 34 35 34 33 33 32
10 11 11 11 10 11 11 9 8 7 7 7 8 8 8 7 6 6 7 7 6 6 8 11 14 14 14 14 13 13 14 15 14 14 13 12 12 11 10 10 9 7 7 6 6 7 8 10 10 11 11 12 13 14 14 16 18 20 22 24 27 30 33 34 34 33 33 34 35 35 34 33 33 32
12 12 12 11 9 10 11 11 10 9 9 9 9 10 10 8 8 8 8 8 7 7 8 11 13 14 14 15 14 14 15 17 16 15 14 13 13 13 11 10 9 8 6 6 7 7 7 7 8 10 11 12 14 14 14 14 15 16 18 20 22 25 29 32 34 34 34 34 34 34 32 32 32 32
14 13 12 11 10 10 11 12 11 10 10 11 10 11 11 10 9 9 8 8 8 8 9 10 11 13 15 16 16 16 16 17 16 16 16 15 14 14 14 13 11 9 8 7 8 9 9 7 7 7 9 11 12 13 14 14 14 14 15 17 18 21 24 27 30 32 32 32 33 33 33 32 32 32
16 14 12 12 11 11 12 12 11 11 11 11 11 11 12 11 11 10 9 9 9 10 10 10 10 11 13 15 17 18 17 15 13 14 17 17 17 17 17 16 13 10 8 7 8 11 11 8 7 6 7 8 8 9 11 13 14 15 16 16 18 19 21 24 27 29 30 31 31 32 32 33 33 32
17 16 14 12 12 12 13 13 12 12 12 12 12 12 12 11 11 11 11 10 11 11 11 11 11 11 13 15 17 18 18 15 12 14 14 14 16 18 18 17 14 10 9 9 10 12 12 10 9 7 6 6 7 7 8 11 12 14 15 17 18 19 20 22 24 27 29 30 32 32 32 33 33 32
18 17 16 14 13 12 13 14 14 13 13 13 13 13 11 11 11 12 12 12 13 13 12 13 13 12 13 15 16 16 16 14 14 15 13 11 13 17 18 16 12 9 11 14 14 14 13 12 11 9 7 7 7 8 8 9 11 12 14 15 16 18 19 21 23 24 27 29 30 31 32 33 34 34
21 19 18 15 13 13 14 15 15 14 13 12 13 12 12 12 13 13 14 14 14 12 12 13 12 11 13 16 15 13 14 14 13 13 13 12 13 14 15 15 12 9 13 19 19 15 13 12 12 10 9 8 8 9 8 7 8 9 11 12 13 15 17 19 20 22 23 25 27 28 29 29 29 30
23 21 19 17 15 14 14 16 17 16 14 14 14 14 14 13 14 14 16 16 15 13 13 13 12 11 14 17 17 15 14 13 11 11 12 12 12 11 10 10 10 10 14 20 21 17 13 11 10 10 8 8 8 8 8 7 7 7 7 8 9 11 12 14 16 18 20 22 22 22 22 22 22 23
24 22 21 19 17 16 14 15 18 18 18 17 16 16 15 15 15 16 17 18 18 16 15 14 15 14 14 16 16 16 14 12 10 11 10 10 10 10 9 10 10 11 15 18 18 16 13 10 9 10 9 8 8 7 8 9 8 8 7 5 5 5 6 8 10 12 14 16 15 15 15 15 17 19
25 24 22 21 20 18 16 15 17 19 20 20 19 18 17 17 18 18 18 19 19 19 18 17 17 17 15 14 14 13 13 13 12 11 10 11 11 10 10 11 12 13 15 14 13 13 12 10 10 10 7 7 9 8 7 9 10 9 7 5 4 4 4 4 5 6 7 9 10 11 12 13 14 17
26 25 24 23 22 20 18 17 17 19 21 21 21 21 20 20 19 19 19 20 20 21 20 19 19 18 16 15 14 12 11 12 13 12 12 11 11 12 12 12 14 14 13 10 8 9 11 11 10 9 6 7 9 9 8 9 10 10 8 6 4 4 3 3 4 3 4 5 6 8 10 11 13 15
28 28 27 26 24 22 20 19 18 19 21 22 23 22 22 21 20 20 20 20 19 20 20 20 20 19 17 16 15 13 12 12 13 13 13 12 13 14 14 13 15 15 11 7 5 7 10 12 10 10 10 9 9 9 8 9 10 10 8 6 5 4 3 3 3 4 5 5 6 7 8 10 12 14
31 30 29 28 27 26 24 21 19 19 21 23 24 24 24 23 22 21 20 19 18 17 17 19 19 18 18 17 15 14 14 14 14 14 15 16 15 14 12 10 13 14 10 7 7 8 10 11 10 10 11 10 9 9 8 9 10 9 8 7 6 6 5 4 4 6 6 7 7 7 8 10 11 13
33 33 32 31 30 29 27 24 22 20 22 24 25 25 25 24 23 22 20 18 17 16 15 17 18 18 18 17 16 15 14 14 15 15 16 17 15 11 9 8 9 11 13 13 12 9 9 8 7 8 10 9 10 10 10 10 9 9 9 8 8 7 6 5 6 6 7 7 7 7 8 10 11 12
36 35 34 33 32 32 31 28 25 22 23 25 26 27 26 25 25 23 19 17 16 15 14 16 17 18 18 17 16 15 14 14 15 15 15 16 13 10 10 10 10 12 16 18 13 8 7 7 6 6 7 7 8 10 11 10 10 10 10 10 10 9 8 7 7 8 8 8 8 8 8 9 10 12
37 37 36 35 35 34 33 32 29 26 25 26 27 27 26 25 26 25 20 17 15 14 14 15 17 17 17 16 16 15 15 15 15 15 14 13 12 11 12 13 11 9 11 13 11 8 7 7 6 5 4 4 5 7 9 10 10 11 12 12 12 11 9 8 8 9 9 9 9 9 9 10 10 10
36 36 37 37 36 36 35 34 32 30 28 27 27 27 27 27 28 25 20 17 15 14 15 15 17 17 17 17 17 17 17 16 15 14 12 12 12 12 12 13 12 11 13 16 14 12 9 7 6 5 4 4 4 5 7 8 9 11 12 12 11 11 10 9 9 10 10 11 11 10 9 9 9 9
34 36 37 36 35 35 35 35 34 33 31 29 28 29 29 29 28 25 21 18 15 15 16 16 17 18 18 18 18 18 18 17 13 11 11 11 12 12 13 14 13 14 19 20 17 16 12 9 8 7 6 6 6 7 8 10 10 11 11 11 11 11 10 10 10 11 12 13 13 11 9 8 8 9
36 36 37 35 33 33 32 33 33 33 32 32 31 30 30 29 27 25 22 20 17 17 18 18 19 20 19 19 19 19 18 16 11 9 10 11 12 12 13 15 15 16 19 18 14 15 15 13 11 8 5 6 8 8 9 10 11 12 12 12 12 11 10 9 10 12 12 13 14 12 10 8 8 8
36 36 36 34 32 31 30 31 31 30 30 33 34 32 30 29 28 26 24 23 21 21 21 20 21 22 22 21 21 19 18 15 12 10 10 10 12 13 13 14 15 16 17 17 15 15 14 13 11 9 8 8 8 7 7 9 11 12 12 12 11 10 9 9 10 10 11 12 13 12 11 10 8 7
35 35 34 32 29 29 29 30 29 27 27 30 32 32 30 29 29 28 27 26 24 23 23 23 24 25 24 23 22 20 18 16 14 13 11 10 11 12 12 12 13 14 15 15 15 16 15 13 11 11 11 11 9 8 8 9 11 11 10 10 10 9 9 9 9 8 10 11 12 11 10 9 8 6
35 34 33 32 30 30 30 29 28 27 26 26 29 30 31 31 30 30 29 27 26 25 26 26 27 27 25 23 22 21 20 18 17 15 12 10 10 10 10 11 12 13 13 12 11 13 16 16 15 14 12 11 11 12 11 9 10 10 10 9 9 8 9 8 7 7 8 9 10 9 8 7 6 5
35 33 31 30 30 31 31 29 28 29 27 26 26 28 30 32 32 32 31 30 28 29 29 29 29 28 25 23 22 23 22 20 18 16 13 11 11 10 10 11 12 13 12 10 9 9 13 16 17 15 13 12 13 14 14 12 12 12 11 11 9 7 7 6 5 6 6 6 6 5 5 5 4 4
36 33 30 28 29 31 32 30 29 29 27 26 26 27 29 32 33 34 34 32 31 31 31 31 30 29 26 25 24 24 24 22 19 16 13 12 12 11 9 10 12 13 12 10 9 9 11 14 15 14 13 13 12 12 13 13 13 13 13 13 11 8 6 5 4 4 4 3 2 2 3 4 3 3
33 30 27 26 27 28 28 28 28 28 27 27 27 28 29 31 33 34 34 32 32 33 32 31 30 29 28 27 27 26 25 23 20 17 15 14 13 11 9 8 9 10 10 10 10 11 12 14 14 14 13 13 13 12 11 10 11 12 11 12 12 9 7 5 4 3 2 0 1 1 1 2 3 3
30 27 24 23 24 22 22 24 26 27 27 28 28 30 30 30 32 33 33 33 34 35 33 32 32 31 30 29 28 27 26 24 21 18 16 15 13 12 10 9 9 9 9 10 12 13 13 14 13 13 12 12 13 13 12 9 10 11 11 12 13 11 7 5 5 4 3 2 1 1 2 2 2 2
28 25 21 20 21 20 21 23 23 25 28 28 29 30 30 30 31 32 33 35 36 35 33 32 33 32 30 29 28 27 26 24 22 19 16 14 14 13 12 10 9 10 10 11 13 14 14 13 13 11 10 9 10 11 12 12 11 11 12 13 14 11 8 6 6 5 3 3 3 3 3 3 3 3
26 24 21 20 21 22 24 24 23 25 28 29 29 29 28 28 30 31 32 34 35 33 32 32 32 31 30 29 28 27 26 25 22 19 16 14 15 16 14 12 11 12 11 11 14 15 13 13 12 9 6 5 5 6 9 11 11 11 13 14 13 12 10 7 6 6 4 3 4 4 5 4 4 5
25 24 22 21 21 22 23 23 22 24 27 28 28 27 25 26 28 30 31 32 32 31 32 32 32 31 30 29 28 27 26 24 22 20 17 16 17 17 16 14 14 14 12 13 16 15 12 11 12 10 6 4 4 4 5 8 10 12 13 14 13 12 10 8 7 7 5 5 5 4 4 5 5 6
25 24 22 20 20 20 21 22 23 24 27 29 29 27 26 27 27 27 28 28 28 29 30 31 31 30 29 28 27 26 25 24 23 21 19 17 17 17 16 15 15 14 13 15 16 15 13 12 14 13 8 5 5 5 5 6 8 11 13 14 14 14 12 11 10 8 6 6 6 5 5 6 7 8
24 22 20 21 23 23 23 23 24 25 28 29 29 28 28 28 27 26 26 25 26 27 28 28 28 28 27 26 25 25 25 24 22 21 20 18 18 19 18 17 15 14 13 14 15 15 13 14 16 16 12 7 6 5 5 5 7 10 14 15 14 14 14 12 11 9 8 9 9 8 8 9 10 10
23 23 22 23 25 25 23 23 23 25 27 28 28 28 28 27 27 26 25 25 25 26 26 27 27 26 25 25 25 25 25 23 22 22 21 20 20 21 21 19 17 14 12 12 13 13 14 16 19 19 17 13 9 6 6 7 9 11 14 15 14 14 14 14 13 12 12 13 13 13 12 11 10 11
23 24 25 26 26 25 24 23 23 25 27 27 27 28 28 28 27 26 25 25 25 25 26 26 26 25 25 25 25 25 24 24 23 23 22 21 21 23 22 21 18 14 11 10 11 13 17 20 20 18 18 17 13 8 6 6 6 9 14 16 15 15 14 13 15 17 17 16 17 17 14 11 10 10
23 24 25 26 26 26 24 23 23 25 26 27 27 28 28 28 27 27 26 25 24 24 25 25 25 25 25 25 25 24 25 25 24 24 23 21 21 22 21 18 16 14 11 9 10 14 19 20 16 14 16 17 13 7 5 4 5 9 14 17 17 16 14 13 14 16 19 21 22 19 14 10 9 9
24 24 25 26 26 26 26 26 25 25 26 27 28 29 29 28 27 27 26 26 25 24 24 25 24 23 23 24 24 25 25 25 24 23 23 22 21 20 18 17 16 15 13 12 13 15 16 13 11 11 14 15 14 10 6 5 6 11 15 16 16 16 15 14 15 15 18 23 24 21 16 12 9 7
24 25 26 27 27 27 28 29 28 28 28 28 29 29 28 26 26 26 26 26 26 25 25 26 25 23 23 24 24 25 26 25 24 23 22 23 22 21 19 19 18 17 16 14 14 13 11 8 9 11 14 17 17 13 10 9 11 14 16 16 16 16 16 16 16 17 20 23 22 18 16 13 7 6
25 25 26 27 27 27 29 30 31 31 29 28 28 28 25 24 26 27 26 25 25 25 25 26 25 25 24 24 24 25 26 25 24 23 23 23 23 22 20 19 18 16 15 14 12 10 10 9 11 13 15 18 18 16 13 11 12 15 17 18 19 19 18 18 18 18 20 21 18 13 13 11 6 4
25 25 26 26 25 26 28 29 29 30 30 28 28 28 25 24 26 28 24 22 23 24 24 25 25 24 25 25 25 26 27 26 24 23 23 22 22 21 20 19 17 15 14 14 14 13 12 11 13 15 16 17 18 17 15 13 13 16 18 19 20 22 22 21 21 20 19 18 16 13 12 10 5 4
Wind_Direction
295 300 310 335 1 7 10 20 19 3 359 18 20 8 5 314 322 344 345 332 309 348 357 354 343 354 3 4 2 4 6 5 3 4 1 0 1 355 345 331 315 294 272 259 254 256 255 248 242 240 241 241 239 239 236 232 232 231 230 230 231 232 232 234 233 230 230 230 229 230 232 232 233 236
288 289 295 297 301 323 339 348 354 345 3 27 19 8 13 344 301 270 330 328 290 331 352 354 346 348 355 2 5 6 11 9 5 5 3 2 2 355 353 354 346 329 292 268 260 259 256 251 249 246 246 246 245 242 238 236 235 233 230 228 230 234 233 233 233 232 233 233 232 231 233 234 234 235
285 283 290 297 292 287 300 317 316 299 331 359 357 359 16 4 318 247 240 315 315 323 336 344 350 348 346 356 5 4 8 10 8 8 6 5 5 359 360 5 357 348 333 289 271 267 259 253 253 251 249 248 247 244 243 243 240 237 235 230 231 236 237 236 235 234 236 236 235 235 234 233 234 235
283 277 279 291 296 287 281 288 295 274 279 314 333 344 356 4 353 316 212 243 309 327 334 339 349 350 344 350 360 357 358 6 9 11 9 5 4 5 6 7 357 343 329 308 293 286 275 264 257 252 250 249 250 249 248 249 246 242 239 234 233 236 238 239 238 236 236 237 237 237 235 233 234 236
288 279 274 277 287 288 272 271 285 281 271 287 308 324 331 342 345 316 268 243 293 328 342 342 345 350 346 347 354 352 351 357 1 7 11 9 5 6 8 6 356 342 328 317 303 289 282 276 264 254 249 248 250 251 252 252 248 244 241 238 237 237 236 237 238 235 233 235 239 239 237 235 235 237
296 287 277 272 275 279 271 266 271 278 282 285 293 309 320 327 324 300 291 279 266 304 326 330 332 341 344 344 350 349 346 348 349 353 3 9 9 10 10 6 358 344 330 320 308 292 282 277 270 262 255 252 248 245 246 249 249 246 242 239 240 241 239 239 241 238 234 234 239 241 239 238 237 238
293 291 284 276 271 270 268 264 263 274 290 289 286 294 307 315 316 304 298 293 274 287 311 321 326 334 339 342 348 347 342 341 340 340 347 355 2 11 14 10 5 356 345 329 312 298 286 279 275 267 262 260 256 248 245 246 249 248 242 239 241 243 241 240 242 242 240 238 238 239 239 238 239 240
285 288 287 283 275 266 260 256 259 269 283 288 286 287 292 298 303 304 298 293 289 287 298 314 325 332 335 338 344 346 342 341 338 336 337 339 342 352 4 10 7 4 4 356 336 314 296 286 279 271 262 258 259 258 253 249 248 246 242 240 241 242 241 241 241 241 242 241 240 240 240 240 240 240
277 283 287 286 278 263 252 248 255 264 271 280 287 288 287 285 287 294 295 292 294 289 291 307 323 333 336 335 339 343 342 340 338 336 336 336 337 337 340 352 360 355 355 2 1 346 321 300 286 275 265 256 253 253 253 251 249 248 245 243 242 240 241 242 242 241 242 242 242 241 242 243 242 241
271 278 285 286 275 260 250 248 252 258 265 275 284 287 287 283 280 284 289 290 293 298 303 308 318 333 338 336 336 339 339 337 335 337 338 338 342 342 337 340 349 348 339 340 353 354 342 321 300 280 267 257 249 248 249 249 248 247 246 244 243 240 240 241 242 242 242 242 241 242 243 245 245 244
266 273 282 284 275 259 250 250 252 256 264 273 279 280 281 279 277 280 284 286 289 296 307 310 313 325 333 334 334 335 337 337 335 339 338 334 339 345 343 341 342 341 335 330 336 345 342 324 307 289 271 264 257 251 250 250 249 248 245 243 243 241 239 239 239 240 241 242 242 243 244 246 248 247
264 269 277 281 277 264 253 251 252 256 264 272 274 274 274 274 276 280 282 282 286 292 297 301 306 314 321 327 332 335 340 340 333 335 335 326 329 337 338 339 340 337 339 337 332 338 339 326 312 300 285 283 282 273 259 253 253 252 250 248 247 247 245 243 240 239 239 240 241 243 245 247 249 250
262 266 272 276 277 268 256 250 251 257 265 271 272 270 269 270 275 281 282 280 283 289 292 295 303 310 314 321 329 333 337 335 327 331 336 326 327 333 331 334 341 341 342 341 337 341 344 333 321 312 299 293 295 293 281 265 258 254 255 255 254 253 252 250 247 243 240 239 240 242 245 248 251 252
262 265 268 273 275 270 257 248 249 255 260 262 266 267 267 269 275 280 282 280 280 282 284 290 298 302 306 316 324 323 326 331 329 333 338 329 328 332 329 329 337 342 343 339 335 342 351 338 326 323 315 309 310 309 303 290 276 266 261 262 260 258 255 253 251 248 245 242 241 242 245 249 253 253
263 264 266 268 270 270 261 250 247 249 251 250 256 264 266 269 274 276 277 278 277 275 276 282 288 288 295 309 320 320 322 330 329 324 325 320 320 327 325 321 322 328 338 336 329 334 350 343 330 334 334 329 327 322 317 312 305 295 283 274 268 263 260 257 254 251 247 244 242 240 240 243 245 245
263 264 265 265 266 268 266 257 248 245 246 248 253 260 264 267 273 275 274 274 273 272 272 276 281 284 290 302 315 320 321 323 320 318 320 314 310 310 306 302 299 311 332 333 322 325 343 348 337 339 345 341 334 327 324 320 317 317 316 308 295 283 280 274 264 253 240 231 227 227 230 232 234 235
262 263 263 262 263 266 266 261 252 244 243 247 251 257 262 267 272 275 275 273 270 269 269 271 277 285 290 297 308 318 319 314 313 315 318 316 308 296 291 290 290 305 328 329 313 316 336 346 332 322 328 342 334 321 318 316 314 317 322 326 330 332 329 313 290 265 233 215 211 216 224 229 232 236
261 261 261 260 261 264 264 261 255 247 243 244 249 256 261 266 271 274 276 275 269 265 264 267 276 286 293 297 304 312 311 308 308 308 307 308 303 293 286 285 288 302 320 321 301 302 322 335 326 306 304 332 327 313 307 308 308 309 315 323 332 343 356 350 331 303 270 249 237 231 232 235 236 236
261 260 260 259 259 261 261 260 256 250 244 243 248 255 260 264 269 273 276 278 274 267 264 267 275 284 292 297 300 300 299 300 303 303 299 295 292 292 291 287 290 298 308 309 292 290 307 320 314 298 298 307 304 299 299 299 299 298 301 307 313 320 336 342 329 314 297 284 271 256 248 246 243 240
260 260 259 257 257 257 258 259 257 252 247 245 247 252 258 263 268 272 276 279 278 270 264 267 274 281 289 294 294 293 293 296 299 299 297 294 291 291 290 286 287 291 293 297 293 285 297 312 310 299 300 298 291 290 287 286 288 288 289 292 297 302 307 306 307 304 297 292 285 275 266 258 253 249
259 259 259 257 257 256 256 256 255 251 247 246 247 250 256 262 268 271 274 276 274 268 263 266 271 278 285 289 289 291 292 294 295 292 291 296 296 287 280 278 279 280 285 294 296 283 283 302 311 304 301 292 281 275 269 270 275 276 277 282 287 296 302 304 307 305 301 300 297 288 279 272 266 262
257 258 259 258 256 256 257 256 253 250 246 245 247 250 255 261 266 269 271 273 270 264 262 264 268 273 281 283 286 291 293 293 291 284 286 296 296 277 270 274 273 277 285 289 285 264 259 281 297 299 297 288 275 268 263 262 265 267 271 277 285 295 303 309 311 308 307 307 305 300 294 286 277 270
256 256 258 258 256 256 258 256 252 249 246 245 246 249 251 256 263 267 269 269 265 258 256 260 264 269 275 280 285 293 297 297 293 286 287 294 287 271 269 273 273 276 281 277 264 249 261 277 282 285 292 286 275 274 272 269 268 269 271 277 287 294 298 305 310 309 310 310 308 305 303 298 290 279
256 257 257 258 258 257 258 257 254 249 246 246 246 247 247 251 258 264 266 266 262 253 250 255 261 267 274 281 288 295 301 304 300 290 286 287 282 275 271 269 266 263 265 264 258 258 270 275 264 261 266 267 271 281 285 281 273 269 270 275 284 292 300 310 318 319 318 317 314 309 303 299 297 290
257 258 259 260 261 260 260 259 256 251 246 245 245 246 246 250 256 261 264 265 260 252 250 254 260 269 277 283 289 295 302 309 307 289 280 282 282 278 275 273 265 261 270 274 264 257 262 263 251 243 242 249 258 272 282 284 276 271 273 277 281 287 297 310 321 325 325 325 324 320 308 301 299 293
259 260 262 263 265 265 264 263 260 255 249 245 244 246 248 251 255 256 258 260 256 250 250 254 260 269 277 282 288 294 302 312 311 285 273 279 282 281 283 283 274 267 276 284 273 258 258 255 247 238 231 244 260 269 274 278 279 274 269 267 272 280 291 306 318 324 327 330 331 328 318 308 303 296
260 262 264 265 267 267 266 264 262 258 250 244 243 245 247 250 252 252 252 252 251 248 249 252 259 267 274 280 286 293 301 311 308 283 272 279 283 283 284 289 288 282 280 281 273 261 254 246 240 241 246 254 263 267 261 264 271 269 259 257 264 274 288 303 312 319 328 333 333 330 323 315 310 304
260 261 264 267 270 269 267 266 264 261 253 245 242 244 246 248 250 249 247 247 246 245 245 248 255 263 270 277 284 291 299 305 301 286 277 279 284 284 281 282 291 296 291 283 270 256 245 241 244 250 252 255 260 262 260 261 263 258 250 253 263 270 281 295 305 318 333 336 332 328 322 315 313 313
260 260 264 268 270 270 269 267 264 262 256 248 242 242 244 246 246 246 245 244 242 240 241 245 251 258 267 276 284 291 295 299 296 288 281 276 278 282 280 278 283 293 298 294 276 249 239 243 252 257 256 257 259 257 255 255 256 251 242 241 250 261 269 279 299 322 333 333 330 328 324 318 315 314
259 260 262 264 267 270 269 267 263 260 258 254 247 241 241 242 243 243 243 241 239 239 241 244 249 257 266 275 282 287 290 292 293 290 280 272 270 274 277 279 281 286 291 291 278 257 247 249 254 255 253 253 256 257 255 249 246 246 241 232 230 241 254 265 295 324 328 329 331 327 325 325 320 315
258 260 260 260 262 265 266 265 263 260 257 255 249 242 239 239 239 241 241 241 241 242 244 246 251 258 265 270 276 281 285 287 290 287 276 267 267 270 272 275 280 282 284 281 273 266 263 261 261 261 257 254 256 262 264 255 246 243 238 228 223 228 242 253 273 298 305 320 348 341 332 332 327 323
257 259 261 258 256 257 260 261 260 256 253 252 249 244 241 239 239 239 240 240 242 244 245 247 251 255 259 264 271 276 280 282 284 283 274 264 262 264 260 259 268 273 275 277 274 270 269 269 269 268 263 258 257 259 263 261 252 246 236 221 217 223 233 239 242 247 255 293 60 49 7 346 336 340
257 258 257 250 244 246 253 256 254 253 253 251 248 246 244 242 240 238 237 238 241 243 244 245 248 252 255 260 266 271 274 275 278 278 271 259 252 250 246 244 252 258 261 268 272 271 269 269 270 270 266 260 255 251 248 245 243 239 228 214 210 212 216 217 210 197 182 172 145 104 81 54 31 31
254 253 250 240 232 233 238 241 243 252 256 253 249 248 245 242 241 239 238 240 242 243 243 245 247 250 253 257 262 265 267 269 272 273 268 257 245 240 237 238 246 250 250 257 266 268 267 265 265 266 263 257 253 246 241 238 233 223 214 210 207 202 197 198 192 175 168 180 166 132 107 85 73 73
247 243 239 232 226 225 227 229 235 246 253 252 251 249 246 244 242 240 239 242 243 242 244 246 247 248 250 254 258 260 260 263 266 267 263 252 239 235 234 236 245 247 245 252 262 265 263 256 249 243 237 238 246 247 239 235 231 214 199 197 199 195 185 180 179 170 160 170 168 143 125 107 92 85
241 239 234 228 223 221 223 228 236 246 252 252 250 249 247 246 245 244 244 246 245 244 245 246 246 247 250 252 255 256 255 257 259 260 256 245 236 233 232 236 244 247 245 251 260 263 257 243 231 222 214 216 229 243 234 226 226 219 202 189 185 186 179 167 169 175 169 168 169 152 131 122 114 107
238 240 235 230 229 227 228 234 242 250 254 254 251 250 250 250 250 253 254 252 248 246 247 247 247 248 250 250 251 251 251 252 254 254 251 243 234 230 230 234 240 242 242 250 259 259 249 233 221 217 216 216 224 239 241 225 221 222 213 196 182 180 178 169 166 170 172 174 174 162 141 132 125 120
239 241 238 235 236 236 236 239 243 248 252 252 251 251 253 253 254 257 256 251 247 247 247 245 245 247 246 245 245 245 246 247 249 248 245 238 230 226 227 231 235 237 239 247 254 252 242 229 220 216 215 216 222 229 228 216 213 216 215 209 195 182 177 174 169 163 162 168 167 152 139 134 128 125
246 246 242 240 241 244 246 247 249 252 254 253 250 251 254 256 256 255 251 248 248 247 245 243 244 244 243 242 242 242 242 242 241 240 239 235 229 228 228 229 231 232 232 239 245 242 234 227 223 219 216 216 223 230 221 218 220 213 208 210 209 196 184 180 174 164 161 166 160 145 136 132 127 127
261 256 251 248 248 251 252 253 256 258 257 255 254 255 256 257 256 254 252 251 250 247 245 245 245 243 242 242 241 240 240 238 238 239 238 235 232 231 229 229 230 227 223 228 232 231 232 232 230 226 224 225 231 238 224 210 209 202 197 202 212 214 208 200 187 172 164 164 158 146 138 136 134 138
276 269 264 259 256 255 256 258 262 263 262 261 261 261 260 258 258 257 256 255 253 250 248 247 246 244 243 243 241 238 236 235 236 237 236 235 234 232 230 227 226 221 216 220 225 230 238 244 243 238 233 229 221 207 187 169 168 185 192 197 205 211 216 219 209 189 174 168 161 149 141 141 142 146
286 279 276 272 267 264 264 265 267 269 269 268 267 264 262 260 259 260 260 258 254 252 251 249 248 247 246 245 242 237 234 233 234 235 234 232 229 227 224 222 221 219 217 223 233 238 244 249 241 226 220 212 201 189 185 184 179 181 186 191 198 203 206 210 211 199 181 172 166 156 149 148 148 155
296 288 285 283 278 275 273 272 271 270 270 267 265 262 260 258 257 256 257 257 254 251 251 250 249 247 247 245 242 237 234 233 234 234 233 231 227 223 221 223 226 228 227 230 235 239 237 227 208 198 197 199 201 202 200 195 187 183 182 182 185 190 194 196 198 195 184 177 173 167 162 159 156 182
303 298 295 290 284 279 276 273 271 270 268 266 263 260 256 257 258 255 252 254 256 255 254 253 250 249 248 245 240 236 235 236 236 235 234 233 229 226 226 228 230 230 229 227 223 218 215 208 195 190 193 199 205 207 203 195 188 184 181 178 176 178 180 182 184 185 183 179 176 174 170 164 148 174
308 303 300 294 287 281 277 273 271 271 269 267 263 257 251 252 257 255 251 252 258 259 258 256 254 253 252 247 239 235 235 236 235 234 233 232 229 227 226 228 229 227 224 220 211 203 202 200 194 195 200 204 207 209 208 203 194 186 181 177 175 175 177 177 177 176 176 178 179 175 173 173 152 102